sat.trackr.live / text

‹ back to catalog

ONEWEB-0708

NORAD 61613 · 2024-188V

PAYLOAD ACTIVE UNKNOWN

§ Identity

Operator
Country
UK
Launch date
2024-10-20
Launch site
AFWTR
Launch vehicle
Mass (kg)
RCS (m²)

Purposes: comms

External: N2YO · Heavens-Above · Gunter

§ Orbital elements

Epoch: 2026-05-25T04:15:04.349952Z

Period
109.89 min
Inclination
87.8850°
Eccentricity
0.0002139
Mean motion
13.10370628 rev/d
Perigee alt
1,220.1 km
Apogee alt
1,223.4 km
Semi-major
7,599.9 km
B*
3.6027e-4
RAAN
40.8587°
Arg perigee
94.2535°
Mean anomaly
265.8837°
Rev number
8,028

§ Raw data

ONEWEB-07081 61613U 24188V   26145.17713368  .00000138  00000+0  36027-3 0  99962 61613  87.8850  40.8587 0002139  94.2535 265.8837 13.10370628 80288

JSON: /api/v1/satellites/61613 · /tle

For live sub-satellite position, see the globe view (requires WebGL).

§ Visibility from observer

Set your observer location to see the next 7 days of passes ≥ 10°. The values pass through the URL so the page stays shareable.

No JS? Fill the form by hand. The geolocation button needs JavaScript.